Location: Newark
(21.1200°N, 73.4000°E)
Time: 02:06:05
(UTC+00:00)

Transit 4A - Visible Passes

Search period start: 21 January 2020 00:00
Search period end: 31 January 2020 00:00
Orbit: 871 x 973 km, 66.8° (Epoch: 20 January)

Date Brightness Start Highest point End Pass type
(mag) Time Alt. Az. Time Alt. Az. Time Alt. Az.
21 Jan 11.4 00:14:54 10° ESE 00:16:17 11° ESE 00:17:40 10° E visible
22 Jan 10.7 00:21:12 10° SSE 00:25:27 19° ESE 00:29:37 10° ENE visible
22 Jan 10.6 13:06:07 10° NW 13:10:43 24° WSW 13:15:24 10° SSW visible
23 Jan 9.8 00:29:14 10° S 00:34:38 32° ESE 00:39:55 10° NE visible
23 Jan 11.2 13:16:59 10° WNW 13:19:53 14° WSW 13:22:49 10° SW visible
24 Jan 8.7 00:37:53 10° S 00:43:52 54° ESE 00:49:42 10° NE visible
25 Jan 7.9 00:46:57 10° SSW 00:53:08 88° ESE 00:59:08 10° NNE visible
25 Jan 10.8 23:13:43 10° SE 23:16:34 14° ESE 23:19:24 10° ENE visible
26 Jan 7.9 00:56:26 10° SW 01:02:26 57° WNW 01:08:19 10° NNE visible
26 Jan 10.0 23:21:00 10° SSE 23:25:45 23° ESE 23:30:23 10° NE visible
27 Jan 8.4 01:06:18 10° SW 01:11:48 34° WNW 01:17:12 10° N visible
27 Jan 9.1 23:29:18 10° S 23:34:56 39° ESE 23:40:28 10° NE visible
28 Jan 9.0 01:16:43 10° WSW 01:21:14 21° WNW 01:25:42 10° NNW visible
28 Jan 8.2 23:38:07 10° S 23:44:11 65° ESE 23:50:07 10° NNE visible
29 Jan 7.7 23:51:17 42° SW 23:53:28 78° WNW 23:59:27 10° NNE visible
30 Jan 10.6 22:19:57 12° ENE 22:19:57 12° ENE 22:20:31 10° ENE visible
